LogID,LogEntryDate,LogEntryTime,LogEntrySeconds,LogNotes,AFR,STFT,CurrentLTFT,IdleLTFT,CruiseLTFT,Load,O2Sensor2,IPW,AFRMAP,LoadTiming,TimingAdv,KnockSum,RPM,Baro,MAP,Boost,WGDC_Active,MAF,IDC,InVVTtarget,ExVVTtarget,InVVTactual,ExVVTactual,TPS,APP,IAT,WGDCCorr,Speed,Battery,ECT,MAT,MAPCalcs,IMAPCalcs,MAFCalcs,ChosenCalc,Custom
1,2017-02-01,07:12:11.57874,0.07595,,0,-0.5859375,6.640625,-4.4921875,6.640625,45.3125,0,3.2,14.7,45.3125,37,0,3500,100,60.5381322,-39.4618678,0,2.431392,9.33333333333333,23.125,-13.125,22.8125,-12.8125,21.9607843137255,23.2705882352941,7,0,62,14.15269,80,18,50,0,45.3125,45.3125,
2,2017-02-01,07:12:11.60876,0.10591,,0,-0.5859375,6.640625,-4.4921875,6.640625,45.3125,0,3.2,14.7,45.3125,37,0,3500,100,60.5381322,-39.4618678,0,2.431392,9.33333333333333,23.125,-13.125,22.8125,-12.8125,21.9607843137255,23.2705882352941,7,0,62,14.15269,80,18,50,0,45.3125,45.3125,
3,2017-02-01,07:12:11.64829,0.14578,,0,-0.5859375,6.640625,-4.4921875,6.640625,45.3125,0,3.3,14.7,45.3125,37,0,3500,100,61.2033864,-38.7966136,0,2.431392,9.625,23.125,-13.125,22.8125,-12.8125,21.9607843137255,23.2705882352941,7,0,62,14.15269,80,18,50,0,45.3125,45.3125,
4,2017-02-01,07:12:11.69832,0.1958,,0,0.390625,6.640625,-4.4921875,6.640625,45.3125,0,3.3,14.7,45.3125,37,0,3500,100,61.2033864,-38.7966136,0,2.431392,9.625,23.125,-13.125,23.125,-12.5,21.9607843137255,23.2705882352941,7,0,62,14.15269,80,18,50,0,43.75,45.3125,
5,2017-02-01,07:12:11.74862,0.24581,,0,0.390625,6.640625,-4.4921875,6.640625,45.3125,0,3.2,14.7,45.3125,37,0,3515.625,100,61.2033864,-38.7966136,0,2.470608,9.375,23.125,-13.125,23.125,-12.5,22.3529411764706,23.2705882352941,6,0,62,14.15269,80,18,51.5625,0,45.3125,45.3125,
6,2017-02-01,07:12:11.79867,0.29581,,0,0.390625,6.640625,-4.4921875,6.640625,45.3125,0,3.2,14.7,45.3125,37,0,3515.625,100,61.2033864,-38.7966136,0,2.470608,9.375,22.5,-12.5,22.96875,-12.65625,22.3529411764706,23.2705882352941,6,0,62,14.22602,80,18,50,0,45.3125,45.3125,
7,2017-02-01,07:12:11.84813,0.3455,,0,0,6.640625,-4.4921875,6.640625,45.3125,0,3.2,14.7,45.3125,37,0,3531.25,100,61.2033864,-38.7966136,0,2.411784,9.41666666666667,22.5,-12.5,22.96875,-12.65625,22.3529411764706,23.2705882352941,6,0,62,14.22602,80,18,50,0,45.3125,45.3125,
8,2017-02-01,07:12:11.89814,0.39545,,0,0,6.640625,-4.4921875,6.640625,45.3125,0,3.1,14.7,45.3125,37,0,3539.0625,100,61.2033864,-38.7966136,0,2.411784,9.142578125,23.125,-13.125,22.8125,-12.8125,22.3529411764706,23.7764705882353,6,0,62,14.22602,80,18,50,0,45.3125,45.3125,
9,2017-02-01,07:12:11.94817,0.44537,,0,0,6.640625,-4.4921875,6.640625,45.3125,0,3.2,14.7,45.3125,36,0,3539.0625,100,61.8686406,-38.1313594,0.5,2.470608,9.4375,23.125,-13.125,22.8125,-12.8125,22.3529411764706,23.7764705882353,6,0,62,14.15269,80,18,53.125,0,50,46.875,
10,2017-02-01,07:12:12.00272,0.50023,,0,-0.78125,6.640625,-4.4921875,6.640625,48.4375,0,3.4,14.7,48.4375,35,0,3539.0625,100,61.8686406,-38.1313594,0.5,2.470608,10.02734375,25,-15,22.96875,-12.8125,22.3529411764706,23.7764705882353,6,0,62,14.15269,80,18,54.6875,0,57.8125,51.5625,
11,2017-02-01,07:12:12.05775,0.55532,,0,-0.78125,6.640625,-4.4921875,6.640625,51.5625,0,3.8,14.7,54.6875,35,0,3554.6875,100,69.1864368,-30.8135632,1.5,2.705904,11.2565104166667,25,-15,22.96875,-12.8125,23.921568627451,25.2941176470588,6,0,62,14.15269,80,18,59.375,0,60.9375,56.25,
12,2017-02-01,07:12:12.11274,0.61003,,0,-0.78125,6.640625,-4.4921875,6.640625,56.25,0,4,14.7,57.8125,34,0,3562.5,100,69.1864368,-30.8135632,1.5,2.705904,11.875,26.875,-18.75,24.0625,-14.375,23.921568627451,25.2941176470588,6,0,62,14.22602,80,18,60.9375,0,59.375,57.8125,
13,2017-02-01,07:12:12.16251,0.66005,,0,0.5859375,6.640625,-4.4921875,6.640625,57.8125,0,4,14.7,57.8125,34,0,3562.5,100,72.5127078,-27.4872922,1.5,2.64708,11.875,26.875,-18.75,24.0625,-14.375,23.921568627451,25.2941176470588,6,0,62,14.22602,80,18,60.9375,0,60.9375,59.375,
14,2017-02-01,07:12:12.21311,0.71061,,0,0.5859375,6.640625,-4.4921875,6.640625,59.375,0,4,14.7,59.375,34,0,3570.3125,100,72.5127078,-27.4872922,1.5,2.64708,11.9010416666667,27.5,-20,25.46875,-17.1875,23.921568627451,25.2941176470588,6,0,62,14.22602,80,18,62.5,0,59.375,59.375,
15,2017-02-01,07:12:12.26306,0.76027,,0,0.5859375,6.640625,-4.4921875,6.640625,59.375,0,3.9,14.7,59.375,34,0,3578.125,100,73.177962,-26.822038,1.5,2.686296,11.62890625,27.5,-20,25.46875,-17.1875,23.921568627451,25.2941176470588,6,0,62,14.22602,80,18,62.5,0,60.9375,59.375,
16,2017-02-01,07:12:12.31759,0.81491,,0,0,6.640625,-4.4921875,6.640625,60.9375,0,4.1,14.7,60.9375,34,0,3585.9375,100,73.177962,-26.822038,1.5,2.686296,12.251953125,28.125,-20,26.5625,-18.28125,23.921568627451,25.2941176470588,6,0,62,14.22602,80,18,64.0625,0,60.9375,60.9375,
17,2017-02-01,07:12:12.36763,0.86493,,0,0,6.640625,-4.4921875,6.640625,60.9375,0,4.1,14.7,60.9375,34,0,3593.75,100,73.8432162,-26.1567838,1.5,2.666688,12.2786458333333,28.125,-20,26.5625,-18.28125,23.921568627451,25.2941176470588,6,0,62,14.22602,80,18,64.0625,0,62.5,60.9375,
18,2017-02-01,07:12:12.41767,0.91519,,0,0,6.640625,-4.4921875,6.640625,60.9375,0,4.1,14.7,60.9375,34,0,3601.5625,100,73.8432162,-26.1567838,1.5,2.666688,12.3053385416667,28.125,-20,27.1875,-18.90625,23.921568627451,25.2941176470588,6,0,62,14.22602,80,18,64.0625,0,60.9375,60.9375,
19,2017-02-01,07:12:12.46738,0.96484,,0,0,6.640625,-4.4921875,6.640625,60.9375,0,4.1,14.7,60.9375,34,0,3609.375,100,75.1737246,-24.8262754,1.5,2.64708,12.33203125,28.125,-20,27.1875,-18.90625,23.921568627451,25.2941176470588,6,0,62,14.22602,80,18,65.625,0,59.375,60.9375,
20,2017-02-01,07:12:12.51735,1.01484,,0,0,6.640625,-4.4921875,6.640625,60.9375,0,4.1,14.7,60.9375,34,0,3609.375,100,75.1737246,-24.8262754,1.5,2.64708,12.33203125,28.125,-20,27.65625,-19.0625,23.921568627451,25.2941176470588,6,0,62,14.22602,80,18,65.625,0,60.9375,60.9375,
21,2017-02-01,07:12:12.56803,1.06537,,0,0,6.640625,-4.4921875,6.640625,60.9375,0,4.1,14.7,60.9375,34,0,3617.1875,100,75.8389788,-24.1610212,1.5,2.686296,12.3587239583333,28.125,-20,27.65625,-19.0625,23.921568627451,25.2941176470588,6,0,64,14.15269,80,18,65.625,0,60.9375,60.9375,
22,2017-02-01,07:12:12.61729,1.11477,,0,0,6.640625,-4.4921875,6.640625,60.9375,0,4.1,14.7,60.9375,33,0,3632.8125,100,75.8389788,-24.1610212,1.5,2.686296,12.412109375,28.125,-20,27.65625,-19.21875,23.921568627451,25.2941176470588,6,0,64,14.15269,80,18,65.625,0,60.9375,60.9375,
23,2017-02-01,07:12:12.66758,1.16495,,0,0,6.640625,-4.4921875,6.640625,60.9375,0,4.1,14.7,60.9375,33,0,3640.625,100,76.504233,-23.495767,2,2.764728,12.4388020833333,28.125,-20,27.65625,-19.21875,24.3137254901961,25.8,6,0,64,14.15269,80,18,67.1875,0,65.625,62.5,
24,2017-02-01,07:12:12.72220,1.21958,,0,0,6.640625,-4.4921875,6.640625,62.5,0,4.3,14.5860465116279,62.5,33,0,3656.25,100,76.504233,-23.495767,2,2.764728,13.1015625,28.75,-20,27.65625,-19.21875,24.3137254901961,25.8,6,0,64,14.22602,80,18,68.75,0,60.9375,62.5,
25,2017-02-01,07:12:12.77157,1.26897,,0,0,6.640625,-4.4921875,6.640625,62.5,0,4.3,14.5860465116279,64.0625,33,0,3664.0625,100,78.4999956,-21.5000044,2,2.686296,13.1295572916667,28.75,-20,27.65625,-19.21875,24.3137254901961,25.8,6,0,64,14.22602,80,18,68.75,0,64.0625,64.0625,
26,2017-02-01,07:12:12.82667,1.324,,0,0,6.640625,-4.4921875,6.640625,64.0625,0,4.4,14.5860465116279,64.0625,32,0,3664.0625,100,78.4999956,-21.5000044,2,2.686296,13.4348958333333,28.75,-20,28.125,-19.375,24.3137254901961,25.8,6,0,64,14.22602,80,18,68.75,0,64.0625,64.0625,
27,2017-02-01,07:12:12.87709,1.37437,,0,0,6.640625,-4.4921875,6.640625,64.0625,0,4.4,14.4738461538462,65.625,32,0,3679.6875,100,79.1652498,-20.8347502,2,2.686296,13.4921875,28.75,-20,28.125,-19.375,24.3137254901961,25.8,6,0,64,14.15269,80,18,68.75,0,62.5,64.0625,
28,2017-02-01,07:12:12.92672,1.42387,,0,0,6.640625,-4.4921875,6.640625,64.0625,0,4.5,14.4738461538462,65.625,32,0,3687.5,100,79.1652498,-20.8347502,2,2.686296,13.828125,28.75,-20,28.28125,-18.90625,24.3137254901961,25.8,6,0,64,14.15269,80,18,70.3125,0,64.0625,65.625,
29,2017-02-01,07:12:12.98147,1.47892,,0,0,6.640625,-4.4921875,6.640625,65.625,0,4.4,14.4738461538462,65.625,32,0,3695.3125,100,80.4957582,-19.5042418,2,2.725512,13.5494791666667,28.75,-20,28.28125,-18.90625,24.3137254901961,26.3058823529412,6,0,64,14.15269,80,18,70.3125,0,65.625,65.625,
30,2017-02-01,07:12:13.03150,1.52883,,0,0,6.640625,-4.4921875,6.640625,65.625,0,4.4,14.4738461538462,65.625,32,0,3695.3125,100,80.4957582,-19.5042418,2,2.725512,13.5494791666667,28.75,-20,28.4375,-19.0625,24.3137254901961,26.3058823529412,6,0,64,14.22602,80,18,70.3125,0,65.625,65.625,
31,2017-02-01,07:12:13.08103,1.57853,,0,0,6.640625,-4.4921875,6.640625,65.625,0,4.4,14.4738461538462,65.625,32,0,3710.9375,100,80.4957582,-19.5042418,2,2.74512,13.6067708333333,28.75,-20,28.4375,-19.0625,24.3137254901961,26.3058823529412,6,0,64,14.22602,80,18,70.3125,0,65.625,65.625,
32,2017-02-01,07:12:13.13150,1.6286,,0,0,6.640625,-4.4921875,6.640625,65.625,0,4.3,14.4738461538462,65.625,32,0,3718.75,100,80.4957582,-19.5042418,2,2.74512,13.3255208333333,28.75,-20,28.4375,-19.375,24.3137254901961,25.8,6,0,64,14.22602,80,18,70.3125,0,64.0625,64.0625,
33,2017-02-01,07:12:13.18102,1.67826,,0,0,6.640625,-4.4921875,6.640625,64.0625,0,4.3,14.4738461538462,64.0625,32,0,3718.75,100,80.4957582,-19.5042418,2,2.74512,13.3255208333333,28.75,-20,28.4375,-19.375,24.3137254901961,25.8,6,0,64,14.15269,80,18,70.3125,0,64.0625,64.0625,
34,2017-02-01,07:12:13.23106,1.72828,,0,0,6.640625,-4.4921875,6.640625,64.0625,0,4.3,14.4738461538462,64.0625,32,0,3734.375,100,80.4957582,-19.5042418,2,2.74512,13.3815104166667,28.75,-20,28.4375,-19.21875,24.3137254901961,25.8,6,0,64,14.15269,80,18,70.3125,0,62.5,64.0625,
35,2017-02-01,07:12:13.28076,1.7782,,0,0,6.640625,-4.4921875,6.640625,64.0625,0,4.3,14.5860465116279,64.0625,33,0,3750,100,80.4957582,-19.5042418,2.5,2.74512,13.4375,28.75,-20,28.4375,-19.21875,24.7058823529412,26.8117647058824,6,0,64,14.15269,80,18,70.3125,0,64.0625,64.0625,
36,2017-02-01,07:12:13.33078,1.8282,,0,0,6.640625,-4.4921875,6.640625,64.0625,0,4.3,14.4738461538462,64.0625,33,0,3765.625,100,80.4957582,-19.5042418,2.5,2.74512,13.4934895833333,28.75,-20,28.59375,-19.53125,24.7058823529412,26.8117647058824,6,0,66,14.15269,81,18,71.875,0,71.875,67.1875,
37,2017-02-01,07:12:13.38582,1.88307,,0,0,6.640625,-4.4921875,6.640625,67.1875,0,4.8,14.363358778626,73.4375,31,0,3781.25,100,87.1483002,-12.8516998,5,2.960808,15.125,28.75,-20,28.59375,-19.53125,24.7058823529412,26.8117647058824,6,0,66,14.15269,81,18,78.125,0,84.375,75,
38,2017-02-01,07:12:13.44074,1.93806,,0,0,6.640625,-4.4921875,6.640625,75,0,5.5,14.1473684210526,79.6875,29,0,3789.0625,100,87.1483002,-12.8516998,5,2.960808,17.3665364583333,31.875,-20,28.59375,-19.53125,27.0588235294118,28.3294117647059,6,0,66,14.15269,81,18,82.8125,0,87.5,82.8125,
39,2017-02-01,07:12:13.49578,1.99299,,0,0,6.640625,-4.4921875,6.640625,82.8125,0,5.6,13.7343065693431,82.8125,28,0,3789.0625,100,93.135588,-6.864412,4.5,2.960808,17.6822916666667,31.875,-20,28.59375,-19.53125,27.0588235294118,28.3294117647059,6,0,66,14.15269,81,18,84.375,0,90.625,84.375,
40,2017-02-01,07:12:13.55045,2.04783,,0,0,0,-4.4921875,6.640625,84.375,0,5.7,13.6347826086957,85.9375,28,0,3804.6875,100,93.135588,-6.864412,4.5,2.960808,18.072265625,32.5,-20,30.46875,-19.53125,27.0588235294118,28.3294117647059,6,0,66,14.15269,81,18,85.9375,0,87.5,85.9375,
41,2017-02-01,07:12:13.60053,2.0978,,0,0,0,-4.4921875,6.640625,85.9375,0,5.7,13.536690647482,85.9375,28,0,3835.9375,100,94.4660964,-5.5339036,4.5,2.901984,18.220703125,32.5,-20,30.46875,-19.53125,26.6666666666667,28.3294117647059,6,0,66,14.15269,81,18,85.9375,0,84.375,84.375,
42,2017-02-01,07:12:13.65542,2.1527,,0,0,0,-4.4921875,6.640625,84.375,0,5.6,13.536690647482,84.375,28,0,3851.5625,100,94.4660964,-5.5339036,4.5,2.901984,17.9739583333333,32.5,-20,31.40625,-19.53125,26.6666666666667,28.3294117647059,6,0,66,14.15269,81,18,85.9375,0,84.375,84.375,
43,2017-02-01,07:12:13.70550,2.20287,,0,0,0,-4.4921875,6.640625,84.375,0,5.6,13.536690647482,84.375,28,0,3859.375,100,95.7966048,-4.2033952,4.5,2.9412,18.0104166666667,32.5,-20,31.40625,-19.53125,26.6666666666667,28.3294117647059,6,0,66,14.15269,81,18,87.5,0,84.375,84.375,
44,2017-02-01,07:12:13.75522,2.25258,,0,0,0,-4.4921875,6.640625,84.375,0,5.5,13.536690647482,84.375,27,0,3875,100,95.7966048,-4.2033952,4.5,2.9412,17.7604166666667,31.875,-20,31.875,-19.53125,26.6666666666667,28.8352941176471,6,0,66,14.15269,81,18,87.5,0,84.375,84.375,
45,2017-02-01,07:12:13.80532,2.30256,,0,0,0,-4.4921875,6.640625,84.375,0,5.5,13.536690647482,84.375,27,0,3882.8125,100,96.461859,-3.538141,4.5,2.9412,17.7962239583333,31.875,-20,31.875,-19.53125,26.6666666666667,28.8352941176471,6,0,66,14.15269,81,18,87.5,0,84.375,84.375,
46,2017-02-01,07:12:13.85516,2.35248,,0,0,0,-4.4921875,6.640625,84.375,0,5.4,13.536690647482,84.375,27,0,3890.625,100,96.461859,-3.538141,4.5,2.9412,17.5078125,31.875,-20,32.03125,-19.53125,26.6666666666667,28.8352941176471,6,0,66,14.15269,81,18,87.5,0,82.8125,84.375,
47,2017-02-01,07:12:13.90548,2.40274,,0,0,0,-4.4921875,6.640625,84.375,0,5.4,13.6347826086957,84.375,28,0,3906.25,100,96.461859,-3.538141,4.5,2.9412,17.578125,31.875,-20,32.03125,-19.53125,26.6666666666667,28.3294117647059,6,0,66,14.15269,81,18,87.5,0,84.375,82.8125,
48,2017-02-01,07:12:13.95493,2.45218,,0,0,0,-4.4921875,6.640625,82.8125,0,5.4,13.6347826086957,82.8125,28,0,3914.0625,100,96.461859,-3.538141,4.5,2.9412,17.61328125,31.875,-20,32.1875,-19.6875,26.6666666666667,28.3294117647059,6,0,70,14.15269,80,18,87.5,0,81.25,82.8125,
49,2017-02-01,07:12:14.00980,2.50704,,0,0,0,-4.4921875,6.640625,82.8125,0,5.3,13.7343065693431,81.25,28,0,3929.6875,100,95.1313506,-4.8686494,4,2.9412,17.3561197916667,31.875,-20,32.1875,-19.6875,26.6666666666667,28.3294117647059,6,0,70,14.15269,80,18,85.9375,0,78.125,81.25,
50,2017-02-01,07:12:14.06520,2.56247,,0,0,0,-4.4921875,6.640625,81.25,0,5.1,13.8352941176471,79.6875,29,0,3937.5,100,95.1313506,-4.8686494,4,2.9412,16.734375,31.25,-20,32.1875,-19.6875,26.2745098039216,28.3294117647059,6,0,70,14.15269,80,18,85.9375,0,78.125,79.6875,
51,2017-02-01,07:12:14.11926,2.61677,,0,0,0,-4.4921875,6.640625,79.6875,0,5,13.9377777777778,79.6875,29,0,3945.3125,100,94.4660964,-5.5339036,4,2.921592,16.4388020833333,31.25,-20,32.1875,-19.6875,26.2745098039216,28.3294117647059,6,0,70,14.22602,80,18,85.9375,0,78.125,78.125,
52,2017-02-01,07:12:14.17480,2.6722,,0,0,0,-4.4921875,6.640625,78.125,0,5,13.8352941176471,78.125,29,0,3976.5625,100,94.4660964,-5.5339036,4,2.921592,16.5690104166667,30,-20,31.71875,-19.53125,26.2745098039216,28.3294117647059,6,0,70,14.22602,80,18,84.375,0,78.125,78.125,
53,2017-02-01,07:12:14.22482,2.72227,,0,0,0,-4.4921875,6.640625,78.125,0,5,13.8352941176471,78.125,29,0,3976.5625,100,93.135588,-6.864412,4,2.921592,16.5690104166667,30,-20,31.71875,-19.53125,26.2745098039216,28.3294117647059,6,0,70,14.22602,80,18,84.375,0,76.5625,76.5625,
54,2017-02-01,07:12:14.27435,2.77157,,0,0,0,-4.4921875,6.640625,78.125,0,5,13.8352941176471,78.125,29,0,3992.1875,100,93.135588,-6.864412,4,2.921592,16.6341145833333,30,-20,31.40625,-19.6875,26.2745098039216,28.3294117647059,6,0,70,14.22602,80,18,84.375,0,76.5625,78.125,
55,2017-02-01,07:12:14.32413,2.8216,,0,0,0,-4.4921875,6.640625,76.5625,0,5,13.8352941176471,76.5625,29,0,4015.625,100,92.4703338,-7.52966619999999,4,2.921592,16.7317708333333,30,-20,31.40625,-19.6875,26.2745098039216,28.3294117647059,6,0,70,14.22602,80,18,84.375,0,78.125,76.5625,
56,2017-02-01,07:12:14.37467,2.87186,,0,0,0,-4.4921875,6.640625,76.5625,0,4.9,13.8352941176471,76.5625,30,0,4023.4375,100,92.4703338,-7.52966619999999,4,2.921592,16.4290364583333,30,-20,30.78125,-19.84375,26.2745098039216,28.3294117647059,6,0,70,14.22602,80,18,84.375,0,76.5625,76.5625,
57,2017-02-01,07:12:14.42915,2.92625,,0,0,0,-4.4921875,6.640625,76.5625,0,4.8,13.9377777777778,76.5625,30,0,4031.25,100,92.4703338,-7.52966619999999,4,2.901984,16.125,30,-20,30.78125,-19.84375,26.2745098039216,28.3294117647059,6,0,70,14.22602,80,18,84.375,0,76.5625,76.5625,
58,2017-02-01,07:12:14.48388,2.98126,,0,0,0,-4.4921875,6.640625,76.5625,0,4.9,13.8352941176471,76.5625,30,0,4062.5,100,92.4703338,-7.52966619999999,4,2.901984,16.5885416666667,28.75,-20,30.15625,-19.6875,26.2745098039216,28.3294117647059,6,0,70,14.22602,80,18,82.8125,0,75,75,
59,2017-02-01,07:12:14.53442,3.03157,,0,0,0,-4.4921875,6.640625,76.5625,0,4.9,13.8352941176471,76.5625,30,0,4062.5,100,91.8050796,-8.1949204,4.5,2.921592,16.5885416666667,28.75,-20,30.15625,-19.6875,26.6666666666667,29.3411764705882,6,0,70,14.22602,80,18,84.375,0,79.6875,76.5625,
60,2017-02-01,07:12:14.58348,3.08103,,0,0,0,-4.4921875,6.640625,76.5625,0,5,13.8352941176471,78.125,29,0,4070.3125,100,91.8050796,-8.1949204,4.5,2.921592,16.9596354166667,30,-20,29.6875,-19.6875,26.6666666666667,29.3411764705882,6,0,70,14.07936,80,18,87.5,0,90.625,81.25,
61,2017-02-01,07:12:14.63876,3.13615,,0,0,0,-4.4921875,6.640625,84.375,0,6,13.3446808510638,90.625,27,0,4101.5625,100,103.7796552,3.77965519999999,8,3.274536,20.5078125,30,-20,29.6875,-19.6875,26.6666666666667,29.3411764705882,6,0,70,14.07936,80,18,95.3125,0,112.5,95.3125,
62,2017-02-01,07:12:14.69362,3.19104,,0,0,0,-4.4921875,6.640625,95.3125,0,6.9,13.0666666666667,98.4375,23,0,4125,100,103.7796552,3.77965519999999,8,3.274536,23.71875,31.875,-20,30.3125,-20,29.8039215686275,31.3647058823529,6,0,70,14.07936,80,18,101.5625,0,114.0625,101.5625,
63,2017-02-01,07:12:14.74848,3.24586,,0,0,0,-4.4921875,6.640625,101.5625,0,7.1,12.9765517241379,103.125,21,0,4117.1875,100,109.766943,9.766943,7.5,3.215712,24.3600260416667,31.875,-20,30.3125,-20,29.8039215686275,31.3647058823529,6,0,72,14.22602,80,17,103.125,0,104.6875,103.125,
64,2017-02-01,07:12:14.79852,3.29591,,0,0,0,-4.4921875,6.640625,103.125,0,7.1,12.9765517241379,101.5625,21,0,4132.8125,100,109.766943,9.766943,7.5,3.215712,24.4524739583333,31.875,-20,30.9375,-20.3125,29.8039215686275,31.3647058823529,6,0,72,14.22602,80,17,101.5625,0,93.75,100,
65,2017-02-01,07:12:14.85365,3.35078,,0,0,0,-4.4921875,6.640625,100,0,6.7,13.0666666666667,98.4375,22,0,4140.625,100,107.1059262,7.1059262,6,3.078456,23.1184895833333,31.875,-20,30.9375,-20.3125,28.2352941176471,29.8470588235294,7,0,72,14.22602,80,17,100,0,92.1875,96.875,
66,2017-02-01,07:12:14.90320,3.40068,,0,0,0,-4.4921875,6.640625,96.875,0,6.4,13.0666666666667,95.3125,23,0,4179.6875,100,107.1059262,7.1059262,6,3.078456,22.2916666666667,31.25,-20,31.40625,-20.46875,28.2352941176471,29.8470588235294,7,0,72,14.15269,81,17,98.4375,0,92.1875,93.75,
67,2017-02-01,07:12:14.95813,3.45552,,0,0,0,-4.4921875,6.640625,93.75,0,6.3,12.9765517241379,92.1875,24,0,4195.3125,100,106.440672,6.44067200000001,6,3.098064,22.025390625,31.25,-20,31.40625,-20.46875,28.2352941176471,29.8470588235294,7,0,72,14.15269,81,17,98.4375,0,92.1875,92.1875,
68,2017-02-01,07:12:15.00819,3.5055,,0,0,0,-4.4921875,6.640625,92.1875,0,6.2,12.9765517241379,92.1875,25,0,4203.125,100,106.440672,6.44067200000001,6,3.098064,21.7161458333333,30.625,-20,31.09375,-20.78125,28.2352941176471,29.8470588235294,6,0,72,14.15269,81,17,98.4375,0,89.0625,90.625,
69,2017-02-01,07:12:15.06309,3.56046,,0,0,0,-4.4921875,6.640625,90.625,0,6.1,12.9765517241379,90.625,25,0,4218.75,100,105.1101636,5.11016360000001,6,3.098064,21.4453125,30.625,-20,31.09375,-20.78125,28.2352941176471,29.8470588235294,6,0,72,14.22602,81,17,98.4375,0,89.0625,90.625,
70,2017-02-01,07:12:15.11289,3.61027,,0,0,0,-4.4921875,6.640625,90.625,0,6.1,12.9765517241379,90.625,26,0,4234.375,100,105.1101636,5.11016360000001,6,3.098064,21.5247395833333,30,-20,31.09375,-20.9375,28.2352941176471,29.8470588235294,6,0,72,14.22602,81,17,96.875,0,90.625,90.625,
71,2017-02-01,07:12:15.16274,3.66019,,0,0,0,-4.4921875,6.640625,90.625,0,6.1,12.9765517241379,90.625,25,0,4242.1875,100,107.1059262,7.1059262,7,3.156888,21.564453125,30,-20,31.09375,-20.9375,29.8039215686275,34.9058823529412,6,0,72,14.22602,81,17,100,0,101.5625,93.75,
72,2017-02-01,07:12:15.21280,3.7102,,0,0,0,-4.4921875,6.640625,93.75,0,6.7,12.9765517241379,100,23,0,4265.625,100,107.1059262,7.1059262,7,3.156888,23.81640625,31.25,-20,30.3125,-20.9375,29.8039215686275,34.9058823529412,6,0,72,14.22602,81,17,117.1875,0,168.75,117.1875,
73,2017-02-01,07:12:15.26785,3.76501,,0,0,0,-4.4921875,6.640625,123.4375,0,10.1,12.3789473684211,139.0625,16,0,4335.9375,100,152.3432118,52.3432118,28.5,3.843168,36.494140625,31.25,-20,30.3125,-20.9375,29.8039215686275,34.9058823529412,6,0,72,14.22602,81,17,151.5625,0,204.6875,151.5625,
74,2017-02-01,07:12:15.32240,3.81988,,0,0,0,-4.4921875,6.640625,157.8125,0,14.2,12.0615384615385,165.625,11,0,4281.25,100,152.3432118,52.3432118,28.5,3.843168,50.6614583333333,32.5,-13.75,31.25,-21.25,61.1764705882353,69.3058823529412,6,-0.5,72,14.22602,81,17,179.6875,0,240.625,179.6875,
75,2017-02-01,07:12:15.37775,3.8749,,0,0,0,-4.4921875,6.640625,179.6875,0,16.8,11.9088607594937,187.5,10,0,4375,100,186.271176,86.271176,40,4.21572,61.25,32.5,-13.75,31.25,-21.25,61.1764705882353,69.3058823529412,6,-0.5,76,14.15269,81,17,201.5625,0,260.9375,201.5625,
76,2017-02-01,07:12:15.43279,3.92996,,0,0,0,-4.4921875,6.640625,204.6875,0,20,11.76,214.0625,10,0,4445.3125,100,186.271176,86.271176,40,4.21572,74.0885416666667,32.5,-6.875,32.03125,-18.59375,61.1764705882353,69.3058823529412,6,-0.5,76,14.15269,81,17,220.3125,0,260.9375,218.75,
77,2017-02-01,07:12:15.48734,3.98488,,0,0,0,-4.4921875,6.640625,220.3125,0,21.3,11.76,225,10,0,4429.6875,100,212.2160898,112.2160898,33.5,4.176504,78.626953125,32.5,-6.875,32.03125,-18.59375,62.7450980392157,69.8117647058824,6,-7,76,14.15269,81,17,229.6875,0,231.25,229.6875,
78,2017-02-01,07:12:15.54237,4.03962,,0,0,0,-4.4921875,6.640625,229.6875,0,21.4,11.76,229.6875,9,0,4468.75,100,212.2160898,112.2160898,33.5,4.176504,79.6927083333333,32.5,-5,32.96875,-14.84375,62.7450980392157,69.8117647058824,6,-7,76,14.15269,81,17,231.25,0,217.1875,226.5625,
79,2017-02-01,07:12:15.59259,4.08992,,0,0,0,-4.4921875,6.640625,223.4375,0,20.4,11.76,220.3125,9,1,4531.25,100,211.5508356,111.5508356,35.5,3.901992,77.03125,32.5,-5,32.96875,-14.84375,62.7450980392157,69.8117647058824,6,-7,76,14.15269,81,17,228.125,0,207.8125,217.1875,
80,2017-02-01,07:12:15.64186,4.1394,,0,0,0,-4.4921875,6.640625,215.625,0,19.5,11.76,214.0625,9,1,4546.875,100,211.5508356,111.5508356,35.5,3.901992,73.88671875,32.5,-6.25,32.96875,-11.5625,68.2352941176471,77.9058823529412,6,-6.5,76,14.15269,81,17,223.4375,0,207.8125,212.5,
81,2017-02-01,07:12:15.69199,4.18938,,0,0,0,-4.4921875,6.640625,210.9375,0,19,11.76,207.8125,9,1,4578.125,100,203.5677852,103.5677852,40,4.058856,72.4869791666667,32.5,-6.25,32.96875,-11.5625,68.2352941176471,77.9058823529412,6,-6.5,76,14.15269,81,17,217.1875,0,203.125,204.6875,
82,2017-02-01,07:12:15.74795,4.24535,,0,0,0,-4.4921875,6.640625,204.6875,0,18.3,11.76,203.125,9,1,4632.8125,100,203.5677852,103.5677852,40,4.058856,70.650390625,32.5,-6.875,33.4375,-11.40625,68.2352941176471,77.9058823529412,6,-6.5,76,14.15269,81,17,212.5,0,203.125,201.5625,
83,2017-02-01,07:12:15.79743,4.29473,,0,0,0,-4.4921875,6.640625,201.5625,0,18.3,11.76,201.5625,9,1,4656.25,100,194.9194806,94.9194806,40,4.000032,71.0078125,32.5,-6.875,33.4375,-11.40625,68.6274509803922,77.9058823529412,7,-6.5,76,14.15269,81,17,207.8125,0,200,201.5625,
84,2017-02-01,07:12:15.84774,4.34489,,0,0,0,-4.4921875,6.640625,201.5625,0,18.1,11.76,200,9,1,4695.3125,100,194.9194806,94.9194806,40,4.000032,70.8209635416667,32.5,-6.25,33.28125,-11.09375,68.6274509803922,77.9058823529412,7,-6.5,76,14.15269,81,17,206.25,0,204.6875,201.5625,
85,2017-02-01,07:12:15.89713,4.39442,,0,0,0,-4.4921875,6.640625,200,0,18.1,11.76,200,9,1,4726.5625,100,192.2584638,92.2584638,42.5,4.058856,71.2923177083333,32.5,-6.25,33.28125,-11.09375,68.6274509803922,77.9058823529412,7,-6.5,76,14.15269,81,17,203.125,0,203.125,200,